Location: Kitt Peak
(31.9633°N, 111.6000°W)
Time: 18:22:22
(UTC-07:00)

Amateur Radio Satellites - All Passes

Search period start: 11 February 2016 17:52
Search period end: 12 February 2016 17:52
Location: Kitt Peak, 31.9633°N, 111.6000°W

Satellite Date Start Highest point End Downlink Frequencies (MHz)
Time Altitude Azimuth
Cosmos 2504 11 Feb 18:04:00 18:10:00 22° 278° (W) 18:15:44 435.465 / 435.565
HO-68 11 Feb 18:10:42 18:12:24 11° 57° (ENE) 18:14:06 435.675
GOMX 1 11 Feb 18:11:02 18:15:30 27° 71° (ENE) 18:19:49 467.674
AIST 2 11 Feb 18:23:50 18:27:58 73° 117° (ESE) 18:32:07 435.215
O/OREOS (USA 219) 11 Feb 18:35:33 18:39:55 44° 255° (WSW) 18:44:17 437.305
CUTE-I 11 Feb 18:51:38 18:56:18 31° 262° (W) 19:01:00 437.470
CANX-2 11 Feb 18:52:02 18:53:28 12° 67° (ENE) 18:54:55 2200.000
BRITE-PL 11 Feb 18:52:15 18:57:52 60° 260° (W) 19:03:25 437.365/2234.400
STRAND 1 11 Feb 18:52:39 18:57:03 28° 97° (E) 19:01:25 437.568
LilacSat-2 11 Feb 18:56:35 18:59:26 20° 264° (W) 19:02:18 437.200
PCSat 11 Feb 19:00:37 19:03:48 16° 52° (NE) 19:06:59 145.827
CUBESAT XI-V 11 Feb 19:01:34 19:05:15 23° 290° (WNW) 19:08:55 437.345
Cubesat XI-IV 11 Feb 19:06:43 19:10:48 22° 264° (W) 19:14:55 437.490
GONETS M04 11 Feb 19:16:17 19:23:36 28° 74° (ENE) 19:30:53
DOVE 4 11 Feb 19:19:06 19:24:13 69° 76° (ENE) 19:29:04 437.250
AO-85 11 Feb 19:20:09 19:25:06 57° 59° (ENE) 19:29:35 145.980
COMPASS 1 11 Feb 19:26:15 19:28:24 14° 69° (ENE) 19:30:33 437.405
CUTE 1.7 + AOD 2 11 Feb 19:39:31 19:43:26 39° 74° (ENE) 19:47:22 437.475
PRISM 11 Feb 19:41:37 19:45:01 24° 97° (E) 19:48:22 437.425
SEEDS 11 Feb 19:42:27 19:46:08 31° 73° (ENE) 19:49:50 437.485
GOMX 1 11 Feb 19:48:38 19:53:23 31° 263° (W) 19:58:01 467.674
RS-15 11 Feb 19:51:36 20:02:59 42° 51° (NE) 20:14:23 29.354- 29.394
AAUSAT CUBESAT 2 11 Feb 19:51:39 19:54:54 23° 71° (ENE) 19:58:11 437.432
HO-68 11 Feb 19:51:45 19:58:53 75° 73° (ENE) 20:06:05 435.675
CUBEBUG 2 11 Feb 19:53:48 19:56:23 16° 70° (ENE) 19:58:56 437.445
CINEMA 3 11 Feb 19:58:49 20:03:25 60° 76° (ENE) 20:07:48 145.822/145.860
CANX-2 11 Feb 20:24:52 20:28:52 44° 261° (W) 20:32:55 2200.000
STRAND 1 11 Feb 20:31:46 20:36:04 27° 290° (WNW) 20:40:22 437.568
ZACube-1 11 Feb 20:38:24 20:41:50 25° 72° (ENE) 20:45:14 437.345
PCSat 11 Feb 20:42:15 20:47:37 63° 248° (WSW) 20:52:57 145.827
FUNcube-1 11 Feb 20:46:07 20:49:45 29° 73° (ENE) 20:53:21 145.935
DELFI C3 11 Feb 20:49:05 20:52:07 21° 71° (ENE) 20:55:11 145.870
COMPASS 1 11 Feb 20:59:49 21:03:37 35° 262° (W) 21:07:27 437.405
AO-85 11 Feb 21:03:14 21:04:53 12° 256° (WSW) 21:06:29 145.980
Cosmos 2499 11 Feb 21:04:04 21:12:13 62° 81° (E) 21:19:41 435.465 / 435.565
GONETS M04 11 Feb 21:12:13 21:20:38 52° 270° (W) 21:29:05
Oscar 11 11 Feb 21:15:00 21:19:17 82° 259° (W) 21:23:36 145.826/435.025
PRISM 11 Feb 21:17:04 21:20:10 21° 290° (WNW) 21:23:15 437.425
CUTE 1.7 + AOD 2 11 Feb 21:17:40 21:19:24 12° 267° (W) 21:21:08 437.475
SEEDS 11 Feb 21:19:21 21:21:52 15° 266° (W) 21:24:23 437.485
UWE-3 11 Feb 21:24:38 21:28:49 54° 260° (W) 21:32:56 435.000/436.395/437.385
AAUSAT CUBESAT 2 11 Feb 21:27:11 21:30:18 21° 264° (W) 21:33:27 437.432
CUBEBUG 2 11 Feb 21:28:48 21:32:44 33° 262° (W) 21:36:35 437.445
HO-68 11 Feb 21:43:11 21:47:06 15° 267° (W) 21:51:03 435.675
ANTELSAT 11 Feb 21:56:19 21:59:17 18° 95° (E) 22:02:18 437.575/2403.000
AIST 1 11 Feb 22:00:12 22:04:32 85° 83° (E) 22:08:49
TIGRISAT 11 Feb 22:02:14 22:05:25 20° 96° (E) 22:08:40 435.000
RS-15 11 Feb 22:03:58 22:15:42 55° 251° (WSW) 22:27:26 29.354- 29.394
ISS 11 Feb 22:10:57 22:13:58 35° 40° (NE) 22:16:59 145.825
50 SAT 11 Feb 22:11:08 22:13:18 15° 70° (ENE) 22:15:30 437.505
HUMSAT D 11 Feb 22:13:32 22:17:37 79° 259° (W) 22:21:42 437.325/437.525
ZACube-1 11 Feb 22:14:59 22:18:04 19° 264° (W) 22:21:06 437.345
FUNcube-1 11 Feb 22:23:20 22:26:00 16° 265° (W) 22:28:39 145.935
DELFI C3 11 Feb 22:23:57 22:26:55 20° 264° (W) 22:29:55 145.870
VELOX 1 11 Feb 22:33:00 22:36:47 28° 71° (ENE) 22:40:34 145.980
QB50P2 11 Feb 22:37:18 22:37:45 10° 93° (E) 22:38:12 145.880/145.840
UNISAT 6 11 Feb 22:46:41 22:51:04 75° 101° (E) 22:55:33 437.425
AISAT 11 Feb 22:49:31 22:53:47 46° 74° (ENE) 22:58:04 437.250
UKube-1 11 Feb 22:50:14 22:54:16 40° 73° (ENE) 22:58:20 .
PHONESAT 2.4 11 Feb 22:55:41 22:58:37 30° 145° (SE) 23:01:33 2401.200-2431.200
SPROUT 11 Feb 22:57:46 22:59:55 14° 68° (ENE) 23:02:05 437.525
Cosmos 2499 11 Feb 22:59:00 23:04:24 20° 279° (W) 23:09:35 435.465 / 435.565
CUBEBUG 1 11 Feb 23:02:40 23:06:57 51° 75° (ENE) 23:11:16 437.445
POPSAT HIP 1 11 Feb 23:03:50 23:07:08 22° 96° (E) 23:10:25 437.405
DX 1 11 Feb 23:05:53 23:10:16 77° 76° (ENE) 23:14:39 434.975-435.025
NANOSAT C BR1 11 Feb 23:07:01 23:10:25 24° 97° (E) 23:13:48 145.865
DUCHIFAT 1 11 Feb 23:07:30 23:10:49 23° 97° (E) 23:14:07 145.980
QB50P1 11 Feb 23:15:52 23:19:38 32° 98° (E) 23:23:23 145.935-145.965
ESTCUBE 1 11 Feb 23:20:06 23:24:36 70° 259° (W) 23:29:07 437.505/2401.250
ANTELSAT 11 Feb 23:32:08 23:35:59 31° 287° (WNW) 23:39:55 437.575/2403.000
TIGRISAT 11 Feb 23:38:21 23:42:03 28° 288° (WNW) 23:45:50 435.000
50 SAT 11 Feb 23:44:02 23:47:05 25° 263° (W) 23:50:10 437.505
ISS 11 Feb 23:48:22 23:50:09 14° 233° (SW) 23:51:55 145.825
BUGSAT 1 11 Feb 23:58:56 00:02:50 48° 100° (E) 00:06:42 437.445
POLYITAN 1 12 Feb 00:09:09 00:13:13 49° 285° (WNW) 00:17:17 437.675
QB50P2 12 Feb 00:09:43 00:13:45 47° 285° (WNW) 00:17:48 145.880/145.840
VELOX 1 12 Feb 00:09:51 00:13:11 20° 264° (W) 00:16:31 145.980
UKube-1 12 Feb 00:28:23 00:30:26 13° 266° (W) 00:32:30 .
AISAT 12 Feb 00:28:41 00:30:27 12° 267° (W) 00:32:13 437.250
TISAT 1 12 Feb 00:31:25 00:35:36 66° 76° (ENE) 00:39:47 437.305
SPROUT 12 Feb 00:31:29 00:35:31 39° 261° (W) 00:39:33 437.525
PHONESAT 2.4 12 Feb 00:32:42 00:35:49 39° 339° (NNW) 00:38:56 2401.200-2431.200
POPSAT HIP 1 12 Feb 00:39:31 00:42:47 22° 289° (WNW) 00:46:03 437.405
ITUPSAT 1 12 Feb 00:40:47 00:43:01 13° 66° (ENE) 00:45:15 437.325
CUSAT 1 12 Feb 00:41:58 00:48:35 31° 87° (E) 00:55:21 437.405
CUBEBUG 1 12 Feb 00:42:32 00:43:27 11° 267° (W) 00:44:24 437.445
NANOSAT C BR1 12 Feb 00:42:51 00:46:00 21° 289° (WNW) 00:49:08 145.865
DUCHIFAT 1 12 Feb 00:43:11 00:46:22 22° 289° (WNW) 00:49:34 145.980
Oscar 19 12 Feb 00:45:37 00:48:36 16° 94° (E) 00:51:36 437.125/150
BEESAT 12 Feb 00:47:00 00:49:52 16° 67° (ENE) 00:52:44 436.000
QB50P1 12 Feb 00:52:34 00:55:07 16° 291° (WNW) 00:57:40 145.935-145.965
JAS-2 12 Feb 01:14:53 01:18:54 21° 95° (E) 01:22:47 435.910
DANDE 12 Feb 01:33:55 01:41:00 44° 89° (E) 01:48:52 436.750
Gurwin Techsat 1B 12 Feb 01:34:54 01:38:29 18° 95° (E) 01:42:02 435.225
SWISSCUBE 12 Feb 01:37:31 01:42:13 66° 75° (ENE) 01:46:58 437.505
BEESAT 3 12 Feb 01:45:25 01:49:04 35° 58° (ENE) 01:52:41 437.485
ITAMSAT 1 12 Feb 01:59:39 02:02:38 15° 94° (E) 02:05:36 435.822/435.867
Cosmos 2491 12 Feb 02:02:22 02:10:48 49° 79° (E) 02:19:12 435.465 / 435.565
PHONESAT 2.4 12 Feb 02:11:12 02:13:36 18° 355° (N) 02:15:59 2401.200-2431.200
BEESAT 2 12 Feb 02:13:48 02:17:40 47° 60° (ENE) 02:21:29 435.950
ITUPSAT 1 12 Feb 02:15:44 02:20:21 52° 259° (W) 02:25:01 437.325
BEESAT 12 Feb 02:22:47 02:27:16 42° 261° (W) 02:31:47 436.000
CUSAT 1 12 Feb 02:22:51 02:30:28 51° 282° (WNW) 02:38:17 437.405
Oscar 19 12 Feb 02:23:13 02:28:06 46° 287° (WNW) 02:32:58 437.125/150
YUBILEINY 12 Feb 02:44:49 02:53:03 48° 89° (E) 03:01:21 435.215
AIST 2 12 Feb 02:51:48 02:53:24 12° 50° (NE) 02:55:00 435.215
JAS-2 12 Feb 02:59:15 03:04:05 33° 290° (WNW) 03:08:41 435.910
STARS 12 Feb 03:00:18 03:04:07 29° 72° (ENE) 03:07:55 437.465
Gurwin Techsat 1B 12 Feb 03:13:32 03:18:32 43° 288° (WNW) 03:23:32 435.225
DANDE 12 Feb 03:17:04 03:23:59 36° 286° (WNW) 03:31:35 436.750
KKS-1 12 Feb 03:23:08 03:27:35 72° 258° (WSW) 03:32:02 437.445
BEESAT 3 12 Feb 03:24:32 03:26:28 13° 252° (WSW) 03:28:22 437.485
MOZHAYETS 4 12 Feb 03:34:23 03:38:47 51° 75° (ENE) 03:43:13
ITAMSAT 1 12 Feb 03:37:15 03:42:18 50° 287° (WNW) 03:47:19 435.822/435.867
PHONESAT 2.4 12 Feb 03:48:51 03:51:32 23° 13° (NNE) 03:54:13 2401.200-2431.200
Cosmos 2491 12 Feb 03:59:58 04:07:08 29° 275° (W) 04:14:20 435.465 / 435.565
AO-7 12 Feb 04:04:49 04:13:04 64° 104° (ESE) 04:21:15 29.400- 29.500
M-CUBED/EXP-1 PRIME 12 Feb 04:10:38 04:13:37 25° 103° (ESE) 04:16:45 437.505
AUBIESAT-1 12 Feb 04:18:10 04:21:12 25° 103° (ESE) 04:24:25 437.475
CUBESAT XI-V 12 Feb 04:23:40 04:26:29 16° 68° (ENE) 04:29:18 437.345
SO-50 12 Feb 04:27:29 04:32:20 80° 298° (WNW) 04:37:18 436.795
AIST 2 12 Feb 04:28:10 04:32:11 52° 246° (WSW) 04:36:09 435.215
STARS 12 Feb 04:37:23 04:40:27 18° 264° (W) 04:43:32 437.465
Cosmos 2504 12 Feb 04:39:38 04:47:53 57° 90° (E) 04:56:30 435.465 / 435.565
YUBILEINY 12 Feb 04:42:30 04:49:58 31° 285° (WNW) 04:57:31 435.215
HORYU 2 12 Feb 04:46:13 04:50:40 70° 101° (ESE) 04:55:06 437.375
MOZHAYETS 4 12 Feb 05:14:50 05:16:11 11° 268° (W) 05:17:32
PHONESAT 2.4 12 Feb 05:25:47 05:29:04 89° 34° (NE) 05:32:19 2401.200-2431.200
CUTE-I 12 Feb 05:34:56 05:37:58 15° 94° (E) 05:40:59 437.470
M-CUBED/EXP-1 PRIME 12 Feb 05:46:01 05:48:04 15° 293° (WNW) 05:50:11 437.505
Cubesat XI-IV 12 Feb 05:48:36 05:52:39 21° 95° (E) 05:56:41 437.490
AUBIESAT-1 12 Feb 05:53:29 05:55:36 15° 293° (WNW) 05:57:46 437.475
JUGNU 12 Feb 05:58:29 06:01:00 13° 163° (SSE) 06:03:31 437.505
AO-7 12 Feb 05:58:51 06:05:08 25° 300° (WNW) 06:11:25 29.400- 29.500
CUBESAT XI-V 12 Feb 05:59:05 06:03:29 41° 262° (W) 06:07:55 437.345
STRAND 1 12 Feb 06:04:06 06:08:11 25° 69° (ENE) 06:12:18 437.568
LilacSat-2 12 Feb 06:33:45 06:37:29 58° 100° (E) 06:41:14 437.200
Cosmos 2504 12 Feb 06:34:46 06:41:39 26° 287° (WNW) 06:48:47 435.465 / 435.565
BRITE-PL 12 Feb 07:03:07 07:07:39 68° 101° (E) 07:11:53 437.365/2234.400
O/OREOS (USA 219) 12 Feb 07:03:50 07:07:55 36° 104° (ESE) 07:12:03 437.305
PHONESAT 2.4 12 Feb 07:04:44 07:05:57 12° 220° (SW) 07:07:09 2401.200-2431.200
CUTE-I 12 Feb 07:13:01 07:18:14 52° 286° (WNW) 07:23:26 437.470
DOVE 4 12 Feb 07:24:03 07:27:22 23° 96° (E) 07:30:39 437.250
HO-68 12 Feb 07:26:48 07:31:23 18° 94° (E) 07:35:56 435.675
Cubesat XI-IV 12 Feb 07:27:49 07:32:45 38° 289° (WNW) 07:37:40 437.490
CUTE 1.7 + AOD 2 12 Feb 07:32:38 07:32:49 10° 92° (E) 07:32:59 437.475
SRMSAT 12 Feb 07:40:58 07:41:58 10° 161° (SSE) 07:42:58 437.500
STRAND 1 12 Feb 07:42:43 07:47:10 30° 262° (W) 07:51:39 437.568
JUGNU 12 Feb 07:44:56 07:49:24 22° 172° (S) 07:53:52 437.505
GOMX 1 12 Feb 07:55:30 07:59:44 60° 285° (WNW) 08:03:49 467.674
CINEMA 3 12 Feb 07:59:16 08:02:12 18° 96° (E) 08:05:10 145.822/145.860
PRISM 12 Feb 08:00:38 08:04:42 54° 259° (W) 08:08:48 437.425
GONETS M04 12 Feb 08:11:02 08:18:47 38° 87° (E) 08:26:32
CANX-2 12 Feb 08:14:36 08:18:42 42° 99° (E) 08:22:47 2200.000
O/OREOS (USA 219) 12 Feb 08:44:38 08:47:25 16° 298° (WNW) 08:50:14 437.305
COMPASS 1 12 Feb 08:47:14 08:51:20 49° 100° (E) 08:55:25 437.405
DOVE 4 12 Feb 09:01:52 09:04:56 20° 290° (WNW) 09:07:59 437.250
CUTE 1.7 + AOD 2 12 Feb 09:04:42 09:08:52 50° 285° (WNW) 09:13:00 437.475
SEEDS 12 Feb 09:06:12 09:10:26 66° 284° (WNW) 09:14:39 437.485
Oscar 11 12 Feb 09:07:33 09:11:11 26° 97° (E) 09:14:49 145.826/435.025
HO-68 12 Feb 09:12:21 09:19:30 67° 288° (WNW) 09:26:36 435.675
AAUSAT CUBESAT 2 12 Feb 09:13:11 09:17:25 86° 106° (ESE) 09:21:36 437.432
UWE-3 12 Feb 09:18:52 09:22:53 40° 99° (E) 09:26:58 435.000/436.395/437.385
CUBEBUG 2 12 Feb 09:23:42 09:27:55 68° 101° (ESE) 09:32:15 437.445
SRMSAT 12 Feb 09:26:16 09:30:30 20° 170° (S) 09:34:43 437.500
AO-85 12 Feb 09:28:29 09:33:38 62° 114° (ESE) 09:39:03 145.980
Cosmos 2499 12 Feb 09:32:32 09:40:58 59° 91° (E) 09:49:39 435.465 / 435.565
JUGNU 12 Feb 09:33:08 09:37:52 25° 182° (S) 09:42:34 437.505
CINEMA 3 12 Feb 09:35:52 09:39:19 26° 288° (WNW) 09:42:48 145.822/145.860
PCSat 12 Feb 09:36:10 09:40:59 34° 108° (ESE) 09:45:49 145.827
UNISAT 6 12 Feb 09:41:08 09:45:02 34° 73° (ENE) 09:48:55 437.425
CANX-2 12 Feb 09:52:13 09:54:08 13° 292° (WNW) 09:56:03 2200.000
HUMSAT D 12 Feb 10:02:21 10:05:43 23° 96° (E) 10:09:06 437.325/437.525
QB50P1 12 Feb 10:05:13 10:07:20 14° 68° (ENE) 10:09:27 145.935-145.965
DELFI C3 12 Feb 10:05:34 10:09:37 71° 101° (E) 10:13:39 145.870
ZACube-1 12 Feb 10:06:32 10:10:47 75° 282° (WNW) 10:15:07 437.345
GONETS M04 12 Feb 10:07:33 10:15:25 38° 283° (WNW) 10:23:22
RS-15 12 Feb 10:09:38 10:19:24 39° 106° (ESE) 10:29:34 29.354- 29.394
FUNcube-1 12 Feb 10:14:10 10:18:23 63° 284° (WNW) 10:22:40 145.935
AIST 1 12 Feb 10:24:02 10:28:23 63° 94° (E) 10:32:44
COMPASS 1 12 Feb 10:25:22 10:26:25 11° 293° (WNW) 10:27:28 437.405
ANTELSAT 12 Feb 10:25:40 10:29:58 64° 259° (W) 10:34:13 437.575/2403.000
TIGRISAT 12 Feb 10:31:38 10:35:53 57° 260° (W) 10:40:05 435.000
Oscar 11 12 Feb 10:43:52 10:47:08 21° 290° (WNW) 10:50:23 145.826/435.025
BUGSAT 1 12 Feb 10:44:45 10:47:42 19° 70° (ENE) 10:50:38 437.445
AISAT 12 Feb 10:46:37 10:48:32 13° 94° (E) 10:50:27 437.250
POLYITAN 1 12 Feb 10:56:39 11:00:49 61° 76° (ENE) 11:04:59 437.675
UWE-3 12 Feb 10:56:56 10:58:59 13° 291° (WNW) 11:01:03 435.000/436.395/437.385
QB50P2 12 Feb 10:57:07 11:01:19 64° 76° (ENE) 11:05:30 145.880/145.840
CUBEBUG 1 12 Feb 10:57:54 11:00:06 14° 94° (E) 11:02:17 437.445
DX 1 12 Feb 10:59:57 11:03:04 19° 96° (E) 11:06:10 434.975-435.025
AO-85 12 Feb 11:11:04 11:14:37 18° 311° (NW) 11:18:14 145.980
SRMSAT 12 Feb 11:14:21 11:19:06 25° 180° (S) 11:23:49 437.500
ESTCUBE 1 12 Feb 11:17:45 11:21:55 35° 98° (E) 11:26:03 437.505/2401.250
UNISAT 6 12 Feb 11:19:21 11:21:49 15° 265° (W) 11:24:15 437.425
50 SAT 12 Feb 11:19:35 11:23:11 39° 99° (E) 11:26:46 437.505
PCSat 12 Feb 11:19:51 11:24:20 26° 303° (WNW) 11:28:53 145.827
JUGNU 12 Feb 11:22:21 11:26:17 18° 192° (SSW) 11:30:12 437.505
POPSAT HIP 1 12 Feb 11:26:11 11:30:21 56° 259° (W) 11:34:31 437.405
Cosmos 2499 12 Feb 11:27:34 11:34:30 26° 287° (WNW) 11:41:35 435.465 / 435.565
NANOSAT C BR1 12 Feb 11:29:07 11:33:14 53° 260° (W) 11:37:23 145.865
DUCHIFAT 1 12 Feb 11:29:14 11:33:23 56° 260° (W) 11:37:30 145.980
HUMSAT D 12 Feb 11:37:59 11:41:13 22° 289° (WNW) 11:44:27 437.325/437.525
QB50P1 12 Feb 11:38:48 11:42:45 38° 261° (W) 11:46:42 145.935-145.965
Oscar 19 12 Feb 11:58:18 12:01:09 15° 66° (ENE) 12:04:00 437.125/150
VELOX 1 12 Feb 12:03:37 12:08:01 74° 283° (WNW) 12:12:22 145.980
UKube-1 12 Feb 12:17:55 12:22:07 53° 285° (WNW) 12:26:18 .
BUGSAT 1 12 Feb 12:19:18 12:22:52 27° 262° (W) 12:26:25 437.445
RS-15 12 Feb 12:20:38 12:31:19 52° 305° (NW) 12:42:38 29.354- 29.394
AISAT 12 Feb 12:21:02 12:25:11 42° 286° (WNW) 12:29:18 437.250
TISAT 1 12 Feb 12:21:49 12:24:09 15° 95° (E) 12:26:27 437.305
SPROUT 12 Feb 12:22:15 12:26:23 48° 100° (E) 12:30:29 437.525
DANDE 12 Feb 12:23:24 12:27:46 20° 66° (ENE) 12:31:23 436.750
CUBEBUG 1 12 Feb 12:32:29 12:36:31 38° 287° (WNW) 12:40:30 437.445
DX 1 12 Feb 12:35:31 12:39:13 28° 289° (WNW) 12:42:52 434.975-435.025
Gurwin Techsat 1B 12 Feb 12:51:35 12:55:10 19° 67° (ENE) 12:58:46 435.225
ESTCUBE 1 12 Feb 12:55:30 12:58:24 17° 292° (WNW) 13:01:18 437.505/2401.250
50 SAT 12 Feb 12:56:00 12:56:47 11° 292° (WNW) 12:57:36 437.505
YUBILEINY 12 Feb 13:02:49 13:08:16 17° 69° (ENE) 13:13:40 435.215
JAS-2 12 Feb 13:03:00 13:10:31 58° 73° (ENE) 13:17:25 435.910
SRMSAT 12 Feb 13:03:27 13:07:41 20° 190° (S) 13:11:55 437.500
SO-50 12 Feb 13:04:24 13:08:22 25° 54° (NE) 13:12:13 436.795
CUSAT 1 12 Feb 13:07:38 13:12:40 72° 265° (W) 13:16:25 437.405
ISS 12 Feb 13:12:47 13:13:50 11° 125° (SE) 13:14:52 145.825
ITAMSAT 1 12 Feb 13:13:28 13:16:19 15° 65° (ENE) 13:19:12 435.822/435.867
Oscar 19 12 Feb 13:34:55 13:39:58 53° 259° (W) 13:45:02 437.125/150
SWISSCUBE 12 Feb 13:43:12 13:47:09 25° 97° (E) 13:51:04 437.505
TISAT 1 12 Feb 13:56:07 13:59:52 33° 287° (WNW) 14:03:35 437.305
SPROUT 12 Feb 14:00:41 14:01:53 11° 293° (WNW) 14:03:04 437.525
DANDE 12 Feb 14:05:27 14:11:06 38° 272° (W) 14:15:24 436.750
ITUPSAT 1 12 Feb 14:20:57 14:25:43 60° 101° (E) 14:30:27 437.325
BEESAT 12 Feb 14:27:25 14:32:13 73° 103° (ESE) 14:36:59 436.000
Gurwin Techsat 1B 12 Feb 14:29:42 14:34:44 44° 261° (W) 14:39:48 435.225
Cosmos 2504 12 Feb 14:41:43 14:45:51 14° 67° (ENE) 14:49:51 435.465 / 435.565
RS-15 12 Feb 14:41:49 14:47:31 14° 334° (NNW) 14:53:22 29.354- 29.394
SO-50 12 Feb 14:44:46 14:48:47 28° 249° (WSW) 14:52:41 436.795
ISS 12 Feb 14:46:48 14:49:56 44° 318° (NW) 14:53:03 145.825
JAS-2 12 Feb 14:49:46 14:55:36 23° 264° (W) 15:01:09 435.910
ITAMSAT 1 12 Feb 14:50:14 14:55:17 53° 259° (W) 15:00:22 435.822/435.867
M-CUBED/EXP-1 PRIME 12 Feb 14:54:51 14:56:51 14° 67° (ENE) 14:58:48 437.505
SRMSAT 12 Feb 14:55:03 14:56:12 11° 198° (SSW) 14:57:22 437.500
Cosmos 2491 12 Feb 14:56:57 15:05:32 66° 92° (E) 15:14:07 435.465 / 435.565
YUBILEINY 12 Feb 14:57:04 15:05:55 79° 266° (W) 15:14:41 435.215
AO-7 12 Feb 14:58:07 15:06:14 57° 68° (ENE) 15:14:21 29.400- 29.500
AUBIESAT-1 12 Feb 15:01:58 15:03:55 14° 67° (ENE) 15:05:50 437.475
KKS-1 12 Feb 15:19:18 15:23:13 31° 98° (E) 15:27:08 437.445
SWISSCUBE 12 Feb 15:20:51 15:24:49 26° 290° (WNW) 15:28:47 437.505
BEESAT 3 12 Feb 15:32:41 15:35:38 20° 110° (ESE) 15:38:36 437.485
MOZHAYETS 4 12 Feb 15:35:14 15:38:25 18° 95° (E) 15:41:35
HORYU 2 12 Feb 15:39:43 15:43:41 34° 72° (ENE) 15:47:40 437.375
ITUPSAT 1 12 Feb 16:01:18 16:03:00 12° 295° (WNW) 16:04:41 437.325
BEESAT 2 12 Feb 16:01:52 16:05:19 28° 112° (ESE) 16:08:45 435.950
M-CUBED/EXP-1 PRIME 12 Feb 16:28:15 16:31:18 25° 257° (WSW) 16:34:14 437.505
STARS 12 Feb 16:30:07 16:34:27 69° 285° (WNW) 16:38:48 437.465
Cosmos 2504 12 Feb 16:31:54 16:40:23 88° 265° (W) 16:48:13 435.465 / 435.565
AUBIESAT-1 12 Feb 16:35:15 16:38:19 25° 257° (WSW) 16:41:14 437.475
CUTE-I 12 Feb 16:52:21 16:55:33 16° 66° (ENE) 16:58:45 437.470
AO-7 12 Feb 16:52:34 16:59:14 26° 263° (W) 17:05:57 29.400- 29.500
KKS-1 12 Feb 16:56:31 16:59:32 18° 291° (WNW) 17:02:32 437.445
Cosmos 2491 12 Feb 16:56:42 17:02:56 21° 289° (WNW) 17:09:12 435.465 / 435.565
YUBILEINY 12 Feb 16:59:19 17:01:11 11° 283° (WNW) 17:03:02 435.215
Cubesat XI-IV 12 Feb 17:06:06 17:10:09 23° 68° (ENE) 17:14:12 437.490
RS-15 12 Feb 17:06:13 17:08:12 10° 14° (NNE) 17:10:11 29.354- 29.394
BEESAT 3 12 Feb 17:09:55 17:13:13 25° 304° (NW) 17:16:32 437.485
MOZHAYETS 4 12 Feb 17:11:26 17:15:36 33° 287° (WNW) 17:19:45
LilacSat-2 12 Feb 17:12:36 17:14:45 15° 70° (ENE) 17:16:53 437.200
HORYU 2 12 Feb 17:17:34 17:20:18 16° 265° (W) 17:23:01 437.375
O/OREOS (USA 219) 12 Feb 17:18:30 17:22:38 32° 66° (ENE) 17:26:46 437.305
BEESAT 2 12 Feb 17:40:16 17:43:11 19° 306° (NW) 17:46:06 435.950
